Simultaneous Nadir Overpasses (SNOs) Predictions

Prediction of SNOs between METOP-B and NOAA-19 Satellite Orbit:

Table of predicted SNOs for the next 14.0 days since TLE Epoch: 1/5/2019
Index Date (METOP-B) Time (METOP-B) Lat,Lon (METOP-B) SZA (METOP-B ) Date (NOAA-19) Time (NOAA-19) Lat,Lon (NOAA-19) SZA (NOAA-19 ) Distance(km) Time Diff (sec)
1 01/10/2019 20:09:35 -78.92, 70.99 79.04 01/10/2019 20:08:25 -78.92, 71.00 79.04 0.69 70
2 01/10/2019 21:00:15 78.92,-121.68 100.96 01/10/2019 20:59:27 78.90,-121.57 100.94 3.11 48
3 01/10/2019 21:50:57 -78.91, 45.56 79.06 01/10/2019 21:50:26 -78.92, 45.49 79.05 2.61 31
4 01/10/2019 22:41:37 78.91,-147.11 100.94 01/10/2019 22:41:28 78.90,-147.08 100.93 0.70 9
5 01/10/2019 23:32:19 -78.89, 20.13 79.09 01/10/2019 23:32:26 -78.89, 20.24 79.08 2.26 7
6 01/11/2019 00:22:59 78.89,-172.54 100.91 01/11/2019 00:23:29 78.90,-172.60 100.92 1.72 30
7 01/11/2019 01:13:41 -78.88, -5.29 79.12 01/11/2019 01:14:27 -78.89, -5.27 79.10 1.66 46
8 01/11/2019 02:04:21 78.88, 162.03 100.88 01/11/2019 02:05:29 78.87, 162.15 100.89 2.59 68




NCC Satellite Simultaneous Nadir Overpasses (SNOs) Prediction Service
